{"data":{"norad_id":64199,"epoch":"2026-05-25T03:25:25.413600Z","epoch_age_seconds":59565,"freshness":"FRESH","line1":"1 64199U 25115A   26145.14265525  .00004662  00000+0  19781-3 0  9997","line2":"2 64199  97.4556 223.8208 0020654  75.6417 284.7111 15.23404275 54937","mean_motion":15.23404275,"eccentricity":0.0020654,"inclination_deg":97.4556,"raan_deg":223.8208,"arg_perigee_deg":75.6417,"mean_anomaly_deg":284.7111,"bstar":0.00019781,"rev_number":5493,"period_min":94.525138443635,"perigee_km":481.38429335508,"apogee_km":509.77824878922,"semimajor_km":6873.7182710721,"source":"CELESTRAK","updated_at":"2026-05-25T13:38:04.312090Z"}}